x

Tanner Bank - 121nm West Of San Diego, Ca (46047) Wave Buoy

11:50am - Thu 23rd Nov 2017 All times are PST. -8 hours from GMT.

  • Sig Wave height 4.9ft
  • Swell Direction
  • Peak Period 15s
  • Average Period 8s
  • Wind
    4mph, 9mph gusts
  • Sea Temp 63°f
  • Air Temp 64°f
  • Sea Pressure 1015.4mb
  • Tanner Bank - 121nm West Of San Diego, Ca
  • Tanner Bank - 121nm West Of San Diego, Ca

More Historic Weather Station data

Upgrade to MSW Pro to gain access to the past 30 days of data for over 8000 Wavebouys and Weather Stations around the globe.

Join

Comparision Forecast

View Surf forecast
   
Thu 11/23 11:50am 5ft 15s 8s 4 9 mph 1015.4mb 63f 64f
10:50am 4.5ft 15s 7s  -  mph 1016.1mb 63f 64f
9:50am 4.5ft 16s 7s  -  mph 1016.4mb 63f 64f
8:50am 4.5ft 15s 7s 2 7 mph 1016.3mb 63f 64f
7:50am 4.5ft 16s 7s  -  mph 1016.1mb 63f 64f
6:50am 4ft 15s 6s  -  mph 1015.9mb 63f 64f
5:50am 3.5ft 16s 6s  -  mph 1015.5mb 63f 64f
4:50am 3.5ft 16s 6s  -  mph 1015.5mb 63f 64f
3:50am 3.5ft 16s 6s  -  mph 1015.8mb 63f 63f
2:50am 3.5ft 10s 6s  -  mph 1015.9mb 63f 63f
1:50am 3.5ft 14s 6s 2 7 mph 1016mb 63f 64f
12:50am 3.5ft 14s 6s 9 11 mph 1016.2mb 63f 64f
Wed 11/22 11:50pm 3.5ft 9s 6s 11 13 mph 1016.4mb 63f 64f
10:50pm 3ft 11s 6s 9 11 mph 1016.8mb 63f 64f
9:50pm 3ft 14s 6s 9 11 mph 1016.8mb 63f 64f
8:50pm 3ft 13s 6s  -  7 mph 1016.7mb 63f 64f
7:50pm 3ft 11s 6s 9 11 mph 1016.4mb 64f 64f
6:50pm 3ft 14s 7s 9 11 mph 1016.2mb 64f 65f
5:50pm 3ft 12s 6s 4 9 mph 1015.9mb 63f 64f
4:50pm 3ft 11s 7s 7 9 mph 1015.7mb 64f 65f
3:50pm 3ft 11s 6s  -  mph 1015.5mb 64f 65f
2:50pm 3.5ft 10s 7s  -  mph 1015.4mb 64f 65f
1:50pm 3ft 11s 6s  -  mph 1015.7mb 64f 65f
12:50pm 3ft 11s 6s  -  mph 1016.1mb 64f 65f
11:50am 3.5ft 11s 7s  -  mph 1016.9mb 64f 64f
10:50am 3.5ft 12s 7s  -  mph 1017.4mb 63f 64f
9:50am 3ft 14s 7s  -  mph 1017.7mb 63f 64f
8:50am 3ft 11s 7s  -  mph 1017.8mb 63f 64f
7:50am 3.5ft 11s 8s  -  mph 1017.5mb 63f 63f
6:50am 3.5ft 12s 7s  -  mph 1016.8mb 63f 63f
5:50am 3.5ft 11s 7s  -  mph 1016.4mb 63f 63f
4:50am 3.5ft 12s 8s  -  mph 1016.1mb 63f 63f
3:50am 3.5ft 11s 8s  -  mph 1016.4mb 63f 63f
2:50am 3.5ft 12s 8s  -  mph 1016.6mb 63f 63f
1:50am 4.5ft 13s 9s  -  mph 1016.8mb 63f 64f
12:50am 4.5ft 12s 9s  -  mph 1017.3mb 63f 64f
Tue 11/21 11:50pm 4.5ft 12s 9s  -  mph 1017.6mb 63f 64f
10:50pm 3.5ft 12s 8s  -  mph 1017.5mb 63f 64f
9:50pm 3.5ft 11s 8s  -  mph 1017.4mb 63f 63f
8:50pm 3.5ft 13s 8s  -  mph 1017.2mb 63f 63f
7:50pm 4.5ft 13s 9s  -  mph 1016.7mb 63f 63f
6:50pm 3.5ft 13s 8s  -  mph 1016.5mb 63f 63f
5:50pm 4ft 13s 8s  -  4 mph 1016.2mb 64f 64f
4:50pm 3.5ft 12s 7s  -  mph 1015.7mb 64f 64f
3:50pm 4ft 12s 7s  -  mph 1016mb 64f 65f
2:50pm 3.5ft 12s 7s  -  mph 1016mb 64f 64f
1:50pm 4.5ft 13s 8s  -  mph 1016.4mb 64f 64f
12:50pm 3.5ft 13s 7s  -  mph 1017.1mb 64f 63f
11:50am 4ft 12s 7s 2 7 mph 1017.6mb 63f 63f
10:50am 4ft 12s 8s  -  mph 1018.4mb 63f 63f
9:50am 3.5ft 13s 7s  -  mph 1018.6mb 63f 63f
8:50am 3.5ft 14s 7s 2 9 mph 1018.5mb 63f 63f
7:50am 3.5ft 13s 7s 7 11 mph 1017.9mb 63f 63f
6:50am 3.5ft 11s 7s 4 9 mph 1017.2mb 63f 63f
5:50am 3.5ft 13s 7s  -  mph 1016.1mb 63f 62f
4:50am 3.5ft 12s 6s  -  mph 1015.8mb 63f 63f
3:50am 3.5ft 15s 6s  -  mph 1015.7mb 63f 63f
2:50am 4ft 12s 6s  -  mph 1015.8mb 63f 63f
1:50am 4.5ft 13s 6s  -  mph 1016.1mb 63f 63f
12:50am 4.5ft 6s 6s  -  mph 1016.1mb 63f 63f
Mon 11/20 11:50pm 4.5ft 13s 6s  -  mph 1016.4mb 63f 63f
10:50pm 5ft 13s 6s  -  mph 1016.8mb 63f 63f
9:50pm 4.5ft 13s 6s  -  mph 1016.6mb 63f 63f
8:50pm 4.5ft 13s 6s  -  mph 1016.8mb 63f 63f
7:50pm 4.5ft 13s 5s 7 9 mph 1016.3mb 63f 64f
6:50pm 4.5ft 13s 5s 13 18 mph 1015.6mb 63f 64f
5:50pm 4.5ft 13s 5s 16 18 mph 1015mb 63f 64f
4:50pm 4.5ft 14s 5s 13 18 mph 1015.3mb 63f 63f
3:50pm 5ft 13s 6s 16 18 mph 1015.6mb 63f 63f
2:50pm 5ft 13s 6s 13 18 mph 1015.9mb 63f 63f
1:50pm 5ft 14s 6s 11 16 mph 1016.2mb 63f 63f
12:50pm 5ft 14s 6s 13 16 mph 1016.5mb 63f 63f
11:50am 5ft 14s 6s 9 13 mph 1017.2mb 63f 63f
10:50am 5ft 14s 6s 13 16 mph 1017.9mb 63f 63f
9:50am 5ft 14s 6s 13 16 mph 1017.9mb 63f 63f
8:50am 5ft 6s 5s 11 13 mph 1017.5mb 63f 63f
7:50am 5ft 6s 6s 16 18 mph 1017.5mb 63f 62f
6:50am 4.5ft 7s 5s 16 18 mph 1016.9mb 63f 62f
5:50am 5ft 7s 6s 16 18 mph 1016.5mb 63f 63f
4:50am 5ft 6s 6s 11 16 mph 1015.8mb 63f 63f
3:50am 5ft 6s 6s 7 11 mph 1015.2mb 63f 62f
2:50am 5ft 7s 6s 13 16 mph 1015.8mb 63f 62f
1:50am 5ft 6s 6s 13 16 mph 1016.2mb 63f 62f
12:50am 5.5ft 7s 6s 13 16 mph 1016.1mb 63f 62f
Sun 11/19 11:50pm 6ft 6s 6s 18 22 mph 1016.8mb 63f 62f
10:50pm 5ft 6s 5s 16 20 mph 1016.7mb 63f 62f
9:50pm 6ft 6s 5s 16 20 mph 1016.9mb 63f 62f